#timestamp,LO_Frequency,Hit,StdDev 
1575907215.2,286047004.2,P
1575907235.0,286047004.4,N
1575907235.9,286047004.4,N
1575907255.8,286047008.6,N
1575907275.6,286047001.6,N
1575907295.4,286046999.7,N
1575907315.3,286046998.9,N
1575907335.1,286046997.7,N
1575907355.9,286046999.8,N
1575907375.7,286047001.5,N
1575907395.5,286047002.5,N
1575907415.4,286047009.9,N
1575907435.2,286047011.1,N
1575907455.0,286047015.1,Y
1575907455.9,286047015.1,P
1575907475.8,286047005.1,N
1575907495.6,286047004.8,N
1575907515.5,286047007.1,N
1575907535.3,286047009.7,N
1575907555.1,286047011.6,N
1575907575.9,286047022.0,Y
1575907595.7,286047015.2,P
1575907615.6,286047009.2,N
1575907635.4,286047004.4,N
1575907655.2,286047000.0,N
1575907675.1,286046995.4,N
1575907676.0,286046995.4,N
1575907695.8,286046995.8,N
1575907715.6,286046996.2,N
1575907735.5,286047003.0,N
1575907755.3,286047001.3,N
1575907775.2,286046996.6,N
1575907795.9,286046994.4,N
1575907815.7,286046996.1,N
1575907835.6,286046996.9,N
1575907855.4,286047000.5,N
1575907875.3,286046999.8,N
1575907895.1,286046999.4,N
1575907896.0,286046999.4,N
1575907915.8,286046995.7,N
1575907935.7,286046995.9,N
1575907955.5,286046996.1,N
1575907975.3,286046997.3,N
1575907995.2,286046995.6,N
1575908015.0,286046993.4,N
1575908015.9,286046993.4,N
1575908035.8,286046992.0,N
1575908055.6,286046994.0,N
1575908075.4,286047001.2,N
1575908095.3,286046998.2,N
1575908115.1,286046999.7,N
1575908135.9,286047005.3,N
1575908155.7,286047004.0,N
1575908175.5,286047010.5,Y
1575908195.4,286047014.3,P
1575908215.2,286047016.5,N
1575908235.0,286047014.2,N
1575908236.0,286047014.2,N
1575908255.8,286047016.5,N
1575908275.6,286047019.2,N
1575908295.5,286047018.3,N
1575908315.3,286047022.6,Y
1575908335.1,286047010.7,P
1575908355.9,286047012.8,P
1575908375.7,286047024.4,P
1575908395.6,286047020.9,Y
1575908415.4,286047003.2,P
1575908435.2,286047015.7,N
1575908455.1,286047020.8,P
1575908456.0,286047020.8,Y
1575908475.8,286047003.3,P
1575908495.7,286047000.8,N
1575908515.5,286046991.3,N
1575908535.3,286047013.0,N
1575908555.2,286047015.2,N
1575908575.0,286047014.5,N
1575908575.9,286047014.5,N
1575908595.8,286047018.1,N
1575908615.6,286047019.4,N
1575908635.4,286047023.1,N
1575908655.3,286047025.5,N
1575908675.1,286047030.3,Y
1575908695.9,286047014.9,P
1575908715.7,286047015.0,P
1575908735.5,286047010.2,P
1575908755.4,286047010.4,Y
1575908775.2,286046993.1,P
1575908795.0,286046990.6,N
1575908795.9,286046990.6,N
1575908815.8,286046988.8,N
1575908835.6,286046988.6,N
1575908855.5,286046991.2,N
1575908875.3,286046997.7,N
1575908895.1,286047002.5,N
1575908915.9,286046997.6,N
1575908935.7,286046997.6,N
1575908955.6,286046998.2,N
1575908975.4,286046995.6,N
1575908995.2,286046996.1,N
1575909015.1,286047000.5,N
1575909016.0,286047000.5,N
1575909035.8,286046997.8,N
1575909055.6,286046990.0,N
1575909075.5,286046991.8,N
1575909095.3,286046991.2,N
1575909115.2,286046984.1,N
1575909135.9,286046987.5,N
1575909155.7,286046985.2,N
1575909175.6,286046984.7,N
1575909195.4,286046983.2,N
1575909215.2,286046981.4,N
1575909235.1,286046993.5,N
1575909236.0,286046993.5,N
1575909255.8,286046990.1,N
1575909275.7,286046988.3,N
1575909295.5,286046982.9,N
1575909315.3,286046979.6,Y
1575909335.2,286046987.1,P
1575909355.0,286046995.1,N
1575909355.9,286046995.1,N
1575909375.8,286047005.1,N
1575909395.6,286047012.0,N
1575909415.4,286047007.7,N
1575909435.3,286047005.9,N
1575909455.1,286046997.9,N
1575909475.8,286046999.4,N
1575909495.7,286046994.3,N
1575909515.5,286046991.8,N
1575909535.4,286046993.0,N
1575909555.2,286046984.1,N
1575909575.0,286046979.3,N
1575909575.9,286046979.3,N
1575909595.8,286046984.3,N
1575909615.6,286046988.5,N
1575909635.5,286046995.1,N
1575909655.3,286046991.0,N
1575909675.1,286046990.8,N
1575909695.9,286046994.5,N
1575909715.7,286046988.0,N
1575909735.5,286046983.9,N
1575909755.4,286046989.6,N
1575909775.2,286046994.5,N
1575909795.1,286046997.2,N
1575909796.0,286046997.2,N
1575909815.8,286046995.6,N
1575909835.6,286046993.9,N
1575909855.5,286046992.7,N
1575909875.3,286046987.3,N
1575909895.1,286046984.3,N
1575909915.9,286046986.1,N
1575909935.7,286046985.6,N
1575909955.6,286046979.3,N
1575909975.4,286046976.7,Y
1575909995.2,286046991.5,P
1575910015.1,286046994.7,P
1575910016.0,286046994.7,P
1575910035.8,286047000.2,N
1575910055.6,286046996.9,N
1575910075.5,286046999.1,N
1575910095.3,286047002.6,N
1575910115.2,286047005.0,N
1575910135.9,286046998.5,N
1575910155.7,286047000.3,N
1575910175.6,286046995.5,N
1575910195.4,286046993.0,N
1575910215.3,286046996.0,N
1575910235.1,286047001.5,N
1575910236.0,286047001.5,N
1575910255.8,286047007.3,N
1575910275.7,286047000.9,N
1575910295.5,286046997.2,N
1575910315.3,286047003.6,N
1575910335.2,286047006.2,N
1575910355.0,286047010.1,N
1575910355.9,286047010.1,N
1575910375.8,286047006.0,N
1575910395.6,286047004.2,N
1575910415.4,286047004.4,N
1575910435.3,286047005.2,N
1575910455.1,286047007.0,N
1575910475.8,286047002.8,N
1575910495.7,286047000.3,N
1575910515.5,286046999.0,N
1575910535.4,286046998.9,N
1575910555.2,286046995.9,N
1575910575.1,286046998.0,N
1575910576.0,286046998.0,N
1575910595.8,286047005.4,N
1575910615.6,286047010.2,N
1575910635.5,286047015.8,Y
1575910655.3,286047014.8,P
1575910675.2,286047009.1,N
1575910695.9,286047004.2,N
1575910715.7,286046996.6,N
1575910735.6,286047005.9,N
1575910755.4,286047010.7,N
1575910775.2,286047008.8,N
1575910795.1,286046998.8,N
1575910796.0,286046998.8,N
